Location: La Bastide
(43.1661°N, 1.2755°E)
Time: 04:09:29
(UTC+00:00)

Cosmos 1953 Rocket - Pass Details

Date: 20 March 2026
Orbit: 599 x 626 km, 82.5° (Epoch: 15 April)

Event Time Altitude Azimuth Distance (km) Brightness Sun altitude
Rises 04:57:32 0° 357° (N) 2,894 7.1 -11.9°
Reaches altitude 10° 04:59:50 10° 3° (N) 1,989 6.3 -11.5°
Maximum altitude 05:04:05 47° 78° (ENE) 825 4.8 -10.7°
Drops below altitude 10° 05:08:21 10° 153° (SSE) 1,987 6.4 -9.9°
Sets 05:10:38 0° 159° (SSE) 2,892 7.2 -9.5°
